Location: Habighorst
(52.7089°N, 10.2278°E)
Time: 20:05:37
(UTC+00:00)

SL-23 DEB - Pass Details

Date: 13 January 2026
Orbit: 423 x 3435 km, 51.4° (Epoch: 16 February)

Event Time Altitude Azimuth Distance (km) Brightness Sun altitude
Exits shadow 06:37:18 - 248° (WSW) 2,451 6.7 -7.0°
Rises 06:37:25 0° 248° (WSW) 2,400 6.7 -7.0°
Reaches altitude 10° 06:39:25 10° 244° (WSW) 1,509 5.7 -6.8°
Maximum altitude 06:42:29 57° 164° (SSE) 540 4.1 -6.3°
Drops below altitude 10° 06:46:14 10° 85° (E) 1,841 7.5 -5.8°
Sets 06:48:55 0° 82° (E) 3,019 8.6 -5.5°
